| time (UTC) | temp F | wind direction | speed knots | gust knots | rain 1hr in | rain 24hr in | rain mn in | humidity % | barometer mb |
| 20260510203016 | 60 | 30 | 0.0 | 9.6 | 0.00 | 0.37 | 0.02 | 39 | 1019.1 |
| 20260510201525 | 60 | 259 | 0.9 | 6.1 | 0.00 | 0.37 | 0.02 | 35 | 1019.2 |
| 20260510200024 | 59 | 274 | 0.9 | 9.6 | 0.00 | 0.37 | 0.02 | 40 | 1019.3 |
| 20260510194513 | 60 | 130 | 0.9 | 5.2 | 0.00 | 0.37 | 0.02 | 40 | 1019.3 |
| 20260510193019 | 59 | 108 | 0.9 | 5.2 | 0.00 | 0.37 | 0.02 | 40 | 1019.2 |
| 20260510191505 | 59 | 269 | 4.3 | 11.3 | 0.00 | 0.37 | 0.02 | 38 | 1019.3 |
| 20260510190011 | 60 | 299 | 3.5 | 6.1 | 0.00 | 0.37 | 0.02 | 42 | 1019.3 |
| 20260510184504 | 60 | 77 | 0.0 | 7.0 | 0.00 | 0.37 | 0.02 | 42 | 1019.0 |
| 20260510183004 | 59 | 71 | 0.0 | 10.4 | 0.00 | 0.37 | 0.02 | 39 | 1018.9 |
| 20260510181504 | 59 | 58 | 1.7 | 7.8 | 0.00 | 0.37 | 0.02 | 33 | 1018.7 |
| 20260510180008 | 60 | 143 | 1.7 | 4.3 | 0.00 | 0.37 | 0.02 | 31 | 1018.7 |
| 20260510174506 | 59 | 56 | 0.9 | 4.3 | 0.00 | 0.37 | 0.02 | 36 | 1018.6 |
| 20260510173005 | 59 | 166 | 0.0 | 7.8 | 0.00 | 0.37 | 0.02 | 37 | 1018.6 |
| 20260510171516 | 60 | 125 | 0.0 | 5.2 | 0.00 | 0.37 | 0.02 | 38 | 1018.8 |
| 20260510170010 | 59 | 71 | 3.5 | 11.3 | 0.00 | 0.37 | 0.02 | 38 | 1018.7 |
| 20260510164504 | 59 | 122 | 0.9 | 4.3 | 0.00 | 0.37 | 0.02 | 37 | 1018.6 |
| 20260510163007 | 59 | 148 | 0.0 | 5.2 | 0.00 | 0.37 | 0.02 | 42 | 1018.5 |
| 20260510161520 | 58 | 228 | 0.9 | 5.2 | 0.00 | 0.37 | 0.02 | 44 | 1018.4 |
| 20260510160009 | 58 | 52 | 4.3 | 7.0 | 0.02 | 0.37 | 0.02 | 43 | 1018.4 |
| 20260510154512 | 57 | 227 | 1.7 | 4.3 | 0.02 | 0.37 | 0.02 | 50 | 1018.2 |
| 20260510153007 | 56 | 146 | 0.0 | 6.1 | 0.02 | 0.37 | 0.02 | 49 | 1017.8 |
| 20260510151522 | 56 | 90 | 0.9 | 8.7 | 0.02 | 0.37 | 0.02 | 50 | 1017.9 |
| 20260510150010 | 56 | 94 | 0.0 | 6.1 | 0.00 | 0.35 | 0.00 | 53 | 1017.6 |
| 20260510144512 | 56 | 40 | 0.0 | 5.2 | 0.00 | 0.35 | 0.00 | 52 | 1017.6 |
| 20260510143011 | 55 | 91 | 0.0 | 6.1 | 0.00 | 0.35 | 0.00 | 53 | 1017.4 |
| 20260510141508 | 54 | 74 | 1.7 | 7.0 | 0.00 | 0.35 | 0.00 | 51 | 1017.4 |
| 20260510140013 | 53 | 79 | 0.9 | 7.8 | 0.00 | 0.35 | 0.00 | 53 | 1017.7 |
| 20260510134512 | 53 | 71 | 0.9 | 7.0 | 0.00 | 0.35 | 0.00 | 53 | 1017.6 |
| 20260510133012 | 53 | 66 | 2.6 | 6.1 | 0.00 | 0.35 | 0.00 | 52 | 1017.4 |
| 20260510131514 | 52 | 8 | 0.9 | 9.6 | 0.00 | 0.35 | 0.00 | 56 | 1017.2 |
| 20260510130010 | 52 | 146 | 0.0 | 5.2 | 0.00 | 0.35 | 0.00 | 63 | 1016.6 |
| 20260510124510 | 50 | 51 | 1.7 | 5.2 | 0.00 | 0.35 | 0.00 | 66 | 1016.4 |
| 20260510123016 | 49 | 56 | 0.0 | 6.1 | 0.00 | 0.35 | 0.00 | 69 | 1016.1 |
| 20260510121513 | 48 | 24 | 1.7 | 4.3 | 0.00 | 0.35 | 0.00 | 71 | 1016.3 |
| 20260510120014 | 48 | 100 | 0.0 | 5.2 | 0.00 | 0.35 | 0.00 | 74 | 1015.9 |
| 20260510114520 | 48 | 94 | 0.0 | 2.6 | 0.00 | 0.35 | 0.00 | 78 | 1015.6 |
| 20260510113013 | 47 | 44 | 0.0 | 2.6 | 0.00 | 0.35 | 0.00 | 78 | 1015.3 |
| 20260510111527 | 47 | 26 | 0.9 | 4.3 | 0.00 | 0.35 | 0.00 | 79 | 1015.0 |
| 20260510110033 | 47 | 306 | 0.0 | 3.5 | 0.00 | 0.35 | 0.00 | 81 | 1014.4 |
| 20260510104520 | 47 | 106 | 0.0 | 3.5 | 0.00 | 0.35 | 0.00 | 83 | 1014.3 |
| 20260510103019 | 47 | 79 | 0.0 | 1.7 | 0.00 | 0.35 | 0.00 | 83 | 1013.7 |
| 20260510101514 | 47 | 36 | 0.0 | 1.7 | 0.00 | 0.35 | 0.00 | 84 | 1013.5 |
| 20260510100002 | 47 | 91 | 0.0 | 0.9 | 0.00 | 0.35 | 0.00 | 85 | 1013.2 |
| 20260510094507 | 47 | 112 | 0.0 | 0.9 | 0.00 | 0.35 | 0.00 | 87 | 1013.3 |
| 20260510093005 | 46 | 142 | 0.0 | 0.0 | 0.00 | 0.35 | 0.00 | 90 | 1013.0 |
| 20260510091503 | 46 | 142 | 0.0 | 0.0 | 0.00 | 0.35 | 0.00 | 91 | 1012.7 |
| 20260510090019 | 46 | 142 | 0.0 | 0.0 | 0.00 | 0.35 | 0.00 | 90 | 1012.5 |
| 20260510084514 | 46 | 142 | 0.0 | 0.0 | 0.00 | 0.35 | 0.00 | 89 | 1012.4 |
| 20260510083013 | 46 | 142 | 0.0 | 0.0 | 0.00 | 0.35 | 0.00 | 88 | 1011.9 |
| 20260510081507 | 46 | 142 | 0.0 | 0.0 | 0.00 | 0.35 | 0.00 | 87 | 1011.9 |
| 20260510080009 | 47 | 142 | 0.0 | 0.0 | 0.00 | 0.35 | 0.00 | 86 | 1011.7 |
| 20260510074505 | 47 | 142 | 0.0 | 0.9 | 0.00 | 0.35 | 0.00 | 85 | 1011.5 |
| 20260510073022 | 47 | 142 | 0.0 | 0.9 | 0.00 | 0.35 | 0.00 | 83 | 1011.1 |
| 20260510071506 | 48 | 142 | 0.0 | 0.0 | 0.00 | 0.35 | 0.00 | 81 | 1011.0 |
| 20260510070013 | 49 | 95 | 0.0 | 0.9 | 0.00 | 0.35 | 0.00 | 78 | 1011.0 |
| 20260510064514 | 50 | 130 | 0.0 | 3.5 | 0.00 | 0.35 | 0.00 | 76 | 1010.9 |
| 20260510063010 | 50 | 46 | 0.0 | 5.2 | 0.00 | 0.35 | 0.00 | 76 | 1010.7 |
| 20260510061507 | 51 | 75 | 0.0 | 6.1 | 0.00 | 0.35 | 0.00 | 77 | 1010.6 |
| 20260510060007 | 51 | 13 | 0.0 | 9.6 | 0.00 | 0.35 | 0.00 | 82 | 1010.3 |
| 20260510054512 | 53 | 207 | 2.6 | 7.8 | 0.00 | 0.35 | 0.00 | 90 | 1010.0 |
| 20260510053016 | 53 | 29 | 0.0 | 2.6 | 0.00 | 0.35 | 0.00 | 93 | 1009.6 |
| 20260510051516 | 54 | 207 | 0.0 | 0.0 | 0.00 | 0.35 | 0.00 | 92 | 1009.3 |
| 20260510050011 | 54 | 207 | 0.0 | 0.9 | 0.00 | 0.35 | 0.00 | 91 | 1009.1 |
| 20260510044513 | 54 | 358 | 0.0 | 1.7 | 0.00 | 0.35 | 0.00 | 91 | 1008.6 |
| 20260510043016 | 54 | 319 | 0.9 | 2.6 | 0.00 | 0.35 | 0.00 | 91 | 1008.5 |
| 20260510041516 | 54 | 221 | 0.0 | 0.9 | 0.02 | 0.36 | 0.00 | 90 | 1007.7 |
| 20260510040026 | 55 | 226 | 0.0 | 0.9 | 0.07 | 0.37 | 0.00 | 91 | 1007.7 |
| 20260510034520 | 55 | 224 | 0.0 | 0.9 | 0.08 | 0.37 | 0.37 | 89 | 1007.6 |
| 20260510033018 | 56 | 204 | 0.0 | 3.5 | 0.08 | 0.37 | 0.37 | 88 | 1007.6 |
| 20260510031519 | 57 | 292 | 0.0 | 2.6 | 0.06 | 0.35 | 0.35 | 86 | 1007.8 |
| 20260510030020 | 57 | 249 | 2.6 | 7.8 | 0.02 | 0.30 | 0.30 | 85 | 1007.6 |
| 20260510024524 | 57 | 240 | 1.7 | 6.1 | 0.01 | 0.29 | 0.29 | 84 | 1007.8 |
| 20260510023024 | 57 | 203 | 0.9 | 2.6 | 0.01 | 0.29 | 0.29 | 85 | 1007.8 |
| 20260510021534 | 57 | 271 | 0.0 | 9.6 | 0.01 | 0.29 | 0.29 | 85 | 1007.4 |
| 20260510020014 | 55 | 238 | 6.1 | 13.0 | 0.00 | 0.28 | 0.28 | 90 | 1008.0 |
| 20260510014517 | 54 | 193 | 0.0 | 0.0 | 0.00 | 0.28 | 0.28 | 89 | 1007.0 |
| 20260510013028 | 55 | 193 | 0.0 | 0.0 | 0.00 | 0.28 | 0.28 | 88 | 1006.9 |
| 20260510011525 | 56 | 193 | 0.0 | 0.9 | 0.00 | 0.28 | 0.28 | 86 | 1006.7 |
| 20260510010028 | 56 | 248 | 0.0 | 1.7 | 0.00 | 0.28 | 0.28 | 85 | 1006.7 |
| 20260510004524 | 57 | 265 | 0.0 | 2.6 | 0.00 | 0.29 | 0.28 | 84 | 1006.7 |
| 20260510003020 | 57 | 237 | 1.7 | 4.3 | 0.00 | 0.29 | 0.28 | 84 | 1006.7 |
| 20260510001530 | 57 | 254 | 0.9 | 4.3 | 0.01 | 0.29 | 0.28 | 84 | 1006.6 |
| 20260510000028 | 58 | 231 | 3.5 | 8.7 | 0.02 | 0.30 | 0.28 | 83 | 1006.7 |
| 20260509234527 | 57 | 282 | 4.3 | 7.8 | 0.18 | 0.31 | 0.28 | 84 | 1006.6 |
| 20260509233025 | 57 | 239 | 3.5 | 10.4 | 0.26 | 0.32 | 0.28 | 86 | 1006.5 |
| 20260509231522 | 57 | 276 | 3.5 | 7.8 | 0.25 | 0.32 | 0.27 | 87 | 1006.5 |
| 20260509230027 | 56 | 261 | 5.2 | 20.0 | 0.24 | 0.33 | 0.26 | 87 | 1006.8 |
| 20260509224519 | 59 | 268 | 8.7 | 14.8 | 0.08 | 0.18 | 0.10 | 82 | 1007.0 |
| 20260509223030 | 69 | 18 | 7.0 | 14.8 | 0.00 | 0.11 | 0.02 | 57 | 1006.1 |
| 20260509221530 | 69 | 260 | 5.2 | 16.5 | 0.00 | 0.12 | 0.02 | 55 | 1004.2 |
| 20260509220022 | 70 | 219 | 7.8 | 19.1 | 0.00 | 0.13 | 0.02 | 54 | 1004.2 |
| 20260509214536 | 70 | 255 | 7.0 | 17.4 | 0.00 | 0.15 | 0.02 | 53 | 1004.1 |
| 20260509213028 | 71 | 185 | 7.8 | 17.4 | 0.00 | 0.17 | 0.02 | 51 | 1004.2 |
| 20260509211525 | 71 | 236 | 8.7 | 15.6 | 0.00 | 0.17 | 0.02 | 53 | 1003.9 |
| 20260509210034 | 71 | 213 | 9.6 | 16.5 | 0.00 | 0.17 | 0.02 | 51 | 1004.2 |
| 20260509204530 | 71 | 203 | 8.7 | 14.8 | 0.00 | 0.17 | 0.02 | 54 | 1004.6 |